Location: Chavenne
(46.6022°N, 3.2951°E)
Time: 11:35:37
(UTC+00:00)

Cosmos 1656 - Pass Details

Date: 09 April 2020
Orbit: 798 x 849 km, 71.1° (Epoch: 03 June)

Event Time Altitude Azimuth Distance (km) Brightness Sun altitude
Rises 21:24:35 0° 329° (NNW) 3,418 8.1 -26.7°
Reaches altitude 10° 21:27:06 10° 325° (NW) 2,475 7.1 -27.0°
Maximum altitude 21:32:35 52° 251° (WSW) 1,041 4.2 -27.6°
Enters shadow 21:33:09 50° 230° (SW) 1,066 4.1 -27.7°
